Regional Weather Roundup
Issued by NWS

Home | Current Version | Previous Version | Graphics & Text | Print | Product List | Glossary On
Versions: 1 2 3 4 5 6 7 8 9 10 11 12 13 14 15 16 17 18 19 20 21 22 23 24 25 26 27 28 29 30 31 32 33 34 35 36 37 38 39 40 41 42 43 44 45 46 47
000
ASUS45 KBOU 231310
RWRCO

WEATHER ROUNDUP FOR COLORADO
NATIONAL WEATHER SERVICE PUEBLO CO
600 AM MST FRI FEB 23 2018

NOTE: "FAIR" INDICATES FEW OR NO CLOUDS BELOW 12000 FEET WITH NO
SIGNIFICANT WEATHER AND/OR OBSTRUCTIONS TO VISIBILITY.

COZ001>005-013-030-031-231400-
...NORTHWEST COLORADO...

CITY           SKY/WX    TMP DP  RH WIND       PRES   REMARKS
CRAIG          CLOUDY     9   5  84 E7        29.95S WCI  -2
HAYDEN         PTCLDY    14  11  87 SE10      29.95S WCI   1
MEEKER         PTCLDY     7   3  84 NE7       29.92S WCI  -5
RABBIT EARS PA NOT AVBL
STEAMBOAT SPGS CLOUDY    17  15  93 CALM      29.94S
WALDEN         MOCLDY    10   5  79 SE3       29.92R
$$

COZ006>008-011-231400-
...WEST CENTRAL VALLEYS...

CITY           SKY/WX    TMP DP  RH WIND       PRES   REMARKS
GRAND JUNCTION PTCLDY    27  22  81 E18       29.94F WCI  14
MONTROSE       PTCLDY    23  14  68 E12       30.00S WCI  12
EAGLE          CLOUDY    19  16  88 CALM      30.00R
RIFLE          CLEAR     19  18  95 CALM      29.97F
DELTA          NOT AVBL
NUCLA          PTSUNNY   25  12  58 E6        29.98F WCI  18
$$

COZ017>023-064>068-231400-
...SOUTHWEST COLORADO...

CITY           SKY/WX    TMP DP  RH WIND       PRES   REMARKS
DURANGO        CLEAR     10   8  92 N7        30.03S WCI  -1
CORTEZ         CLEAR     21  11  65 SW10      30.00S WCI  10
PAGOSA SPRINGS FAIR     N/A N/A N/A CALM      30.04S
TELLURIDE      PTCLDY    17   3  54 SE9       29.93S WCI   5
WOLF CREEK PAS CLOUDY     1   0  92 S17G30    29.91S WCI -19
$$

COZ009-010-012-014-032>034-037-058>063-231400-
...CENTRAL COLORADO...

CITY           SKY/WX    TMP DP  RH WIND       PRES   REMARKS
ASPEN          CLOUDY    16  12  84 SW3       29.91S
BUENA VISTA    MOCLDY    15   9  78 CALM      29.96S
COPPER MTN     CLOUDY     7   0  72 S12       29.82S HAZE    WCI  -9
BERTHOUD PASS  FAIR       0 -13  55 SW8G17    29.81S WCI -15
COTTONWOOD PAS LGT SNOW  16  12  86 CALM      29.90S
GUNNISON       CLEAR      0  -4  83 CALM      30.00R
KREMMLING      LGT SNOW  19  14  79 CALM      29.96S
LEADVILLE      LGT SNOW   3   1  91 E5        29.88R FOG     WCI  -6
MONARCH PASS   CLOUDY     3   0  85 SW16      29.94S WCI -16
SALIDA         FAIR      18  10  71 CALM      30.05S
SUNLIGHT       LGT SNOW   7   3  85 SW8G17    29.89S WCI  -6
WILKERSON PASS PTCLDY     5   1  85 SW12G18   29.88R WCI -11
$$

COZ069>075-231400-
...SAN LUIS VALLEY/SANGRE DE CRISTO MOUNTAINS...

CITY           SKY/WX    TMP DP  RH WIND       PRES   REMARKS
ALAMOSA        PTCLDY    19   5  54 S15       29.99S WCI   5
DEL NORTE      FAIR       7   4  88 CALM      29.99R
LA VETA PASS   CLEAR     12   3  67 S26G43    30.02S WCI  -8
SAGUACHE       CLEAR      5   0  78 N9        30.00S WCI  -9
$$

COZ035-036-038>040-231400-
...NORTHERN COLORADO FRONT RANGE...

CITY           SKY/WX    TMP DP  RH WIND       PRES   REMARKS
DENVER INTL AP MOCLDY    13  10  88 N3        30.03R FOG
DMNS CITY PARK NOT AVBL
AURORA         PTCLDY    10  10  96 CALM      30.02R
FRONT RANGE AP FAIR      15  13  92 S6        30.03S WCI   6
ERIE MUNI ARPT MOCLDY     4   1  87 CALM      30.11S
BOULDER MUN AP MOCLDY    14  12  92 SW5       30.04S WCI   6
CENTENNIAL     PTCLDY    12  10  92 SW3       30.00R
BROOMFIELD     MOCLDY    14  10  85 CALM      30.03  FOG
LOVELAND       CLEAR     10   9  92 S5        30.05S FOG     WCI   2
LONGMONT       FAIR      11   7  85 W5        30.07S WCI   3
$$

COZ041-046-047-076>085-087-088-231400-
...PIKES PEAK/PALMER DIVIDE AND SOUTHERN FOOTHILLS...

CITY           SKY/WX    TMP DP  RH WIND       PRES   REMARKS
COLO. SPRINGS  PTCLDY    13   9  84 N6        30.01R WCI   4
A. F. ACADEMY  CLOUDY    13   9  85 N8        29.98S WCI   2
SCHRIEVER AFB  NOT AVBL
CHEYENNE MTN   NOT AVBL
ELLICOTT         N/A    N/A N/A N/A CALM      29.99S
FALCON         FAIR      11   8  89 NW5       29.99S WCI   2
FORT CARSON    CLEAR     15  11  85 NW6       30.01R WCI   6
LIMON          CLEAR      4   2  91 CALM      30.03R
MONUMENT HILL  CLEAR     14  10  85 S9        29.97S WCI   2
CANON CITY     CLEAR     18  12  79 CALM      30.03R
WALSENBURG     FAIR      32   7  34 S15G21    30.00S WCI  22
TRINIDAD       CLEAR     18   7  62 NW8       30.00S WCI   8
$$

COZ042>045-048>051-090-091-231400-
...NORTHEAST COLORADO...

CITY           SKY/WX    TMP DP  RH WIND       PRES   REMARKS
GREELEY ARPT   CLOUDY    16  13  88 CALM      30.07S FOG
AKRON          CLEAR     15  13  91 W6        30.05S FOG     WCI   6
BURLINGTON     PTCLDY    10   6  84 W8        30.09R WCI  -2
WRAY           FAIR      14  10  85 CALM      30.12S
YUMA           NOT AVBL
STERLING       FAIR      12  12 100 CALM      30.09S
HOLYOKE        FAIR      19  14  79 NW5       30.12F WCI  13
FORT MORGAN    FAIR      15  13  92 CALM      30.08R FOG
$$

COZ086-089-092>099-231400-
...SOUTHEAST COLORADO...

CITY           SKY/WX    TMP DP  RH WIND       PRES   REMARKS
PUEBLO         CLEAR     12   8  84 E3        30.06R FOG
LA JUNTA       FOG       20  18  92 CALM      30.09R VSB 1/4
LAMAR          CLOUDY    24  22  91 E3        30.10R FOG
SPRINGFIELD      N/A     14  14 100 N7        30.06S WCI   4
$$





USA.gov is the U.S. government's official web portal to all federal, state and local government web resources and services.